Wind_Speed
26 30 30 27 22 17 16 14 12 12 14 14 17 17 18 18 19 20 22 21 21 21 19 19 18 16 14 11 7 3 3 8 11 12 13 12 10 10 10 11 11 10 8 10
25 24 28 25 22 17 14 16 13 10 9 11 12 13 13 14 16 15 13 13 13 13 14 14 14 14 13 11 10 8 7 5 2 1 1 3 5 6 8 8 8 7 7 8
27 23 24 23 22 18 14 12 12 11 10 8 9 9 8 9 10 11 12 12 11 10 8 6 6 6 6 7 8 7 5 3 1 2 3 4 5 5 6 6 7 9 7 7
28 27 20 19 20 19 16 13 11 11 9 9 8 7 7 7 7 7 7 8 9 8 8 7 7 6 4 3 0 2 3 3 5 5 6 6 7 8 8 6 12 9 10 8
28 26 22 13 15 16 17 16 11 12 12 10 10 11 8 7 7 6 5 5 3 5 5 5 4 4 2 2 1 2 2 1 1 2 5 11 13 15 14 14 17 17 23 17
19 17 18 14 15 15 16 15 14 13 14 13 12 12 14 13 11 11 10 9 8 7 5 5 5 6 6 6 6 5 6 6 6 7 5 5 6 7 8 10 11 9 8 8
16 17 15 16 16 14 15 11 11 14 16 14 15 16 16 16 17 15 15 15 15 14 14 13 13 11 11 12 13 12 12 13 12 11 14 9 9 10 12 12 14 12 13 13
21 18 17 17 16 13 13 9 11 13 14 17 18 19 22 20 18 18 20 21 19 18 18 18 19 20 19 18 17 17 17 17 18 16 17 15 16 17 17 18 21 19 21 20
24 23 21 22 22 18 14 15 14 14 19 16 18 19 20 22 22 21 21 23 24 25 24 24 19 20 24 25 24 24 24 26 24 20 20 16 17 22 22 25 23 26 27 26
28 28 28 24 21 22 22 22 19 21 24 25 24 25 26 26 25 26 28 27 27 29 29 30 29 26 27 28 25 25 28 31 31 30 29 19 25 26 29 29 31 28 24 26
29 31 32 29 27 25 25 26 27 28 26 26 30 33 35 32 33 32 31 31 34 38 35 33 33 35 34 31 31 30 32 33 32 35 31 27 29 33 35 37 36 32 30 29
33 36 36 36 34 33 33 33 33 35 35 34 32 34 37 40 41 39 39 39 38 41 41 42 41 41 41 40 40 35 38 37 40 38 36 37 38 39 42 43 40 37 36 31
43 41 39 37 38 42 45 44 40 40 42 44 43 40 41 43 47 48 46 47 49 48 49 48 48 48 48 49 47 46 45 45 45 44 34 37 43 50 50 47 45 40 38 39
54 51 48 48 49 50 49 51 50 48 49 50 47 49 51 50 50 52 56 59 58 58 58 59 57 55 56 53 53 54 52 51 48 51 47 48 48 49 50 52 53 50 50 50
58 58 59 61 61 60 58 57 56 55 53 53 56 55 54 55 56 56 57 60 63 66 68 66 66 64 65 64 62 55 57 51 53 57 53 58 53 47 47 47 48 48 48 46
66 65 65 62 63 65 65 62 59 58 54 61 63 62 64 67 58 52 58 62 66 70 72 74 72 69 69 71 66 64 59 52 54 59 57 58 56 55 52 53 53 51 52 49
73 71 70 69 69 69 68 69 66 64 64 64 65 70 69 62 59 60 63 65 63 67 72 74 74 75 76 80 72 71 69 66 66 70 72 69 62 60 59 58 59 58 56 54
77 76 75 74 72 72 70 67 71 69 65 66 71 65 63 60 61 64 67 70 70 69 66 67 66 71 75 83 73 66 65 67 70 70 71 71 66 62 60 62 61 63 63 60
70 72 72 70 71 71 64 65 65 65 64 63 61 59 61 62 63 65 69 71 71 70 69 65 62 65 71 65 64 60 59 65 70 69 70 69 72 71 67 64 64 63 63 61
58 59 62 62 61 60 60 60 59 61 62 65 62 59 60 57 57 60 61 64 67 69 65 60 60 61 52 49 53 57 58 58 60 62 60 62 64 64 66 65 63 61 57 54
58 59 59 58 58 59 60 60 60 62 64 61 59 56 56 55 55 56 60 61 62 65 63 62 62 55 47 50 51 49 47 46 47 48 52 48 47 47 45 45 48 52 54 54
58 59 58 56 57 59 60 59 61 62 61 58 56 55 54 53 53 55 58 60 62 62 60 63 61 50 49 46 41 38 37 37 42 44 46 46 45 42 43 43 43 43 44 47
58 58 57 56 56 58 60 59 58 58 59 58 56 55 54 55 56 57 58 61 62 62 62 61 56 52 47 40 35 40 46 46 44 42 45 45 43 39 41 43 43 43 43 45
59 58 58 56 59 59 58 58 58 58 57 56 57 56 56 57 59 59 60 60 52 51 60 60 55 51 47 49 51 49 47 42 40 41 39 33 39 43 45 43 39 43 42 40
61 61 60 60 59 59 59 57 57 57 57 57 57 58 59 57 57 57 57 56 58 57 53 52 51 46 43 36 33 32 31 31 29 28 30 37 42 44 38 37 36 36 37 33
66 65 62 61 61 59 57 56 55 57 58 59 59 59 59 58 56 58 57 56 49 38 26 29 31 32 39 36 35 25 30 37 31 33 34 36 34 30 29 33 42 34 32 34
70 66 62 61 59 57 56 58 58 59 61 61 57 56 50 50 57 61 60 57 50 49 47 44 45 45 43 46 47 39 37 40 41 41 45 41 41 39 41 43 35 30 31 34
Wind_Direction
343 347 348 355 352 352 346 349 4 29 34 42 51 47 48 51 56 64 67 66 71 76 82 86 84 87 86 86 87 105 221 244 256 260 264 262 258 253 252 255 266 276 272 251
334 340 343 347 351 343 339 333 343 2 16 27 36 52 49 47 50 47 54 66 67 67 73 75 86 93 90 87 85 76 68 70 77 131 215 239 243 247 260 268 272 269 268 252
323 328 342 338 346 344 332 325 328 337 349 351 10 13 34 46 46 51 50 48 53 56 51 55 64 79 92 110 107 96 83 88 109 239 252 267 270 262 260 258 260 262 258 262
315 314 330 328 338 344 339 314 310 317 318 330 331 332 343 353 10 29 44 44 34 39 44 52 64 61 52 57 263 209 210 236 267 281 276 271 267 267 267 272 274 268 251 259
305 306 311 310 319 331 338 337 296 295 305 308 311 313 301 299 304 310 324 338 16 11 9 13 2 350 337 314 269 280 285 274 196 281 282 271 270 274 280 276 271 269 268 273
312 307 299 285 294 300 318 327 321 301 289 297 303 304 306 303 291 288 289 288 288 290 291 293 302 314 313 309 303 290 283 274 266 268 257 273 284 292 285 291 286 298 300 300
314 318 303 287 295 291 287 307 323 314 306 289 283 294 298 295 294 295 293 288 282 284 285 285 282 276 275 276 281 288 285 284 282 280 284 279 279 277 285 285 289 291 288 287
288 287 302 308 307 294 294 258 306 315 316 309 302 301 302 301 285 289 291 292 291 285 278 277 278 278 279 273 278 273 272 275 277 276 274 279 288 282 278 276 284 282 276 276
284 287 295 293 302 310 299 286 281 293 301 302 308 310 309 300 295 284 283 288 295 293 287 281 278 277 277 275 275 278 277 280 279 272 266 273 272 267 273 277 271 274 273 276
291 295 298 299 288 289 297 302 301 296 289 286 292 296 301 298 292 289 290 288 286 282 284 288 288 276 276 278 277 276 274 276 279 280 278 274 271 273 272 273 271 269 274 281
285 289 290 292 291 290 285 283 282 284 281 281 282 284 287 286 287 287 284 282 283 284 279 276 277 283 282 280 279 280 276 276 277 276 279 285 277 273 271 271 273 272 273 276
278 279 281 285 289 295 297 295 295 294 286 285 283 282 281 286 281 279 278 279 276 274 277 277 276 276 274 276 279 277 275 274 275 276 279 284 279 272 268 271 272 277 280 271
274 277 279 285 287 294 296 297 297 297 297 294 295 294 289 283 278 276 275 275 275 276 274 273 273 273 276 276 274 274 275 275 276 278 275 272 273 276 276 273 274 275 276 277
272 275 278 281 286 290 291 296 297 295 294 297 302 301 300 293 289 280 274 271 269 269 270 270 269 270 271 270 271 273 271 272 273 269 274 269 269 270 272 274 279 280 278 279
272 275 281 281 283 285 290 295 300 296 293 294 295 299 306 303 293 284 279 274 271 271 268 267 268 267 269 268 267 268 272 273 271 270 266 265 265 263 268 272 275 277 277 277
273 276 281 281 284 284 284 289 294 295 293 297 300 300 304 308 304 288 276 273 269 267 266 267 267 267 269 265 263 267 270 274 271 267 267 263 263 263 266 268 268 270 272 273
273 277 279 281 283 283 287 286 287 288 289 291 295 302 308 306 294 286 278 272 269 267 265 265 266 268 268 265 265 268 272 275 273 271 271 268 266 264 266 268 267 266 268 271
267 271 272 276 279 281 283 281 288 289 287 288 294 298 301 290 280 276 274 275 278 275 270 268 269 266 267 266 266 272 271 268 267 268 271 273 272 268 268 267 267 268 269 270
265 266 273 276 278 280 276 276 280 282 280 279 286 288 280 277 275 274 274 275 277 277 278 281 277 272 271 279 280 278 274 272 272 271 270 272 274 275 275 274 272 270 271 273
262 263 265 266 266 265 266 267 269 275 276 275 279 277 277 280 280 277 277 277 277 279 280 284 283 282 289 287 280 278 278 277 276 275 274 273 274 277 278 277 277 275 271 270
255 256 256 259 261 261 262 265 271 273 270 272 274 278 279 278 279 279 278 279 281 280 283 287 287 291 296 289 285 283 281 278 274 273 273 273 273 274 275 273 275 278 280 281
257 258 259 260 262 263 263 264 266 266 269 275 275 272 272 274 275 275 275 276 277 281 283 284 288 293 289 290 287 285 280 269 270 272 275 278 279 278 276 274 268 267 269 268
260 260 261 261 260 262 264 264 269 274 273 273 275 275 276 276 277 277 277 277 279 280 280 281 286 291 291 285 272 277 278 277 273 269 274 279 284 282 276 278 280 275 268 265
260 262 261 261 265 265 268 269 271 274 276 277 278 278 277 276 277 278 278 280 280 272 279 283 284 283 280 276 278 282 283 281 276 276 275 272 272 270 273 282 281 277 272 275
259 259 261 262 264 267 270 272 274 276 278 278 278 277 278 278 278 277 277 275 278 280 283 280 279 278 273 269 271 271 270 269 265 273 263 266 271 273 275 284 283 285 280 284
261 261 263 266 267 269 270 271 273 275 275 275 275 275 273 272 271 273 274 276 277 278 272 282 273 255 262 260 254 264 266 270 259 265 261 257 251 272 273 282 277 276 277 275
261 262 264 264 264 267 271 272 273 274 272 272 272 271 270 271 269 269 270 267 263 253 256 249 243 243 250 249 249 246 247 259 270 254 263 258 264 274 272 273 285 282 284 277
Height
5777 5772 5767 5762 5758 5754 5753 5750 5749 5746 5744 5743 5739 5738 5735 5733 5730 5728 5726 5725 5723 5721 5719 5719 5719 5720 5720 5721 5722 5722 5723 5724 5725 5726 5725 5725 5725 5725 5725 5724 5725 5723 5723 5724
5774 5771 5767 5761 5758 5754 5752 5751 5749 5747 5746 5744 5742 5739 5738 5736 5733 5732 5730 5728 5727 5727 5726 5726 5723 5721 5721 5721 5722 5723 5724 5724 5724 5725 5726 5725 5724 5724 5723 5723 5722 5722 5721 5722
5771 5768 5764 5760 5757 5753 5751 5749 5749 5747 5745 5744 5743 5741 5740 5737 5735 5734 5733 5731 5729 5727 5727 5727 5727 5726 5725 5723 5722 5722 5723 5724 5724 5724 5724 5723 5723 5722 5721 5721 5720 5720 5720 5719
5767 5765 5761 5758 5755 5752 5750 5748 5747 5745 5744 5743 5742 5741 5740 5739 5738 5736 5734 5734 5733 5731 5730 5728 5728 5727 5726 5725 5724 5723 5721 5721 5721 5721 5721 5721 5720 5720 5719 5719 5718 5718 5718 5717
5760 5758 5757 5754 5752 5750 5749 5746 5744 5743 5742 5741 5740 5740 5738 5737 5737 5735 5735 5735 5732 5731 5730 5730 5728 5728 5726 5726 5724 5723 5722 5721 5719 5718 5717 5718 5718 5716 5716 5716 5714 5714 5712 5714
5754 5752 5751 5750 5749 5747 5746 5744 5742 5740 5740 5739 5738 5737 5737 5736 5734 5733 5732 5731 5730 5731 5730 5728 5727 5726 5725 5723 5722 5722 5720 5719 5718 5717 5715 5715 5716 5714 5714 5713 5711 5711 5709 5707
5752 5749 5747 5745 5744 5742 5742 5741 5739 5738 5737 5735 5734 5734 5733 5732 5731 5730 5730 5729 5727 5727 5726 5726 5726 5724 5722 5722 5720 5719 5718 5716 5714 5715 5713 5712 5711 5710 5710 5709 5707 5706 5704 5702
5747 5745 5743 5742 5740 5737 5736 5735 5735 5734 5733 5732 5731 5730 5729 5727 5727 5726 5725 5724 5724 5723 5721 5720 5720 5720 5719 5718 5717 5716 5713 5712 5711 5709 5708 5710 5708 5706 5704 5703 5702 5700 5698 5696
5740 5739 5737 5735 5734 5733 5730 5730 5730 5729 5730 5728 5726 5724 5723 5722 5720 5720 5720 5719 5719 5718 5717 5714 5715 5714 5712 5711 5711 5710 5709 5707 5706 5704 5702 5702 5701 5698 5696 5695 5695 5691 5690 5688
5730 5730 5730 5729 5727 5726 5725 5724 5722 5723 5724 5723 5722 5720 5718 5716 5714 5713 5712 5712 5712 5710 5709 5708 5707 5706 5704 5704 5703 5703 5700 5698 5698 5697 5695 5698 5694 5691 5688 5687 5687 5683 5682 5681
5718 5720 5720 5720 5719 5718 5718 5716 5715 5716 5717 5716 5714 5712 5710 5709 5708 5706 5705 5705 5704 5701 5701 5700 5698 5697 5697 5697 5696 5695 5692 5690 5689 5685 5687 5690 5688 5683 5680 5678 5673 5672 5672 5671
5707 5707 5708 5709 5708 5707 5708 5708 5706 5705 5704 5706 5705 5704 5701 5700 5698 5697 5695 5694 5692 5690 5690 5688 5687 5687 5686 5687 5687 5687 5683 5681 5676 5678 5681 5680 5674 5670 5667 5665 5665 5667 5666 5664
5694 5695 5695 5695 5695 5695 5695 5696 5696 5694 5692 5693 5694 5694 5691 5688 5685 5683 5683 5681 5679 5678 5676 5675 5674 5673 5672 5674 5675 5674 5674 5670 5668 5666 5671 5664 5662 5658 5655 5655 5654 5654 5653 5652
5680 5682 5682 5683 5682 5681 5680 5680 5680 5679 5677 5676 5677 5675 5678 5676 5673 5670 5668 5666 5663 5661 5659 5658 5658 5658 5657 5657 5656 5657 5658 5658 5657 5652 5653 5647 5647 5644 5642 5640 5640 5642 5641 5639
5665 5666 5667 5667 5668 5668 5666 5665 5665 5663 5663 5663 5661 5661 5664 5658 5656 5653 5651 5649 5647 5644 5638 5637 5639 5641 5636 5639 5639 5643 5641 5641 5640 5638 5635 5627 5630 5632 5629 5628 5627 5625 5623 5625
5646 5648 5650 5650 5651 5651 5651 5651 5650 5646 5645 5644 5644 5645 5642 5639 5638 5636 5631 5629 5625 5620 5619 5621 5619 5622 5614 5613 5623 5627 5626 5626 5623 5619 5615 5614 5615 5614 5614 5612 5611 5610 5608 5607
5627 5629 5630 5631 5633 5634 5633 5634 5632 5631 5630 5628 5627 5625 5622 5621 5616 5611 5610 5607 5604 5599 5598 5599 5600 5601 5590 5590 5605 5607 5605 5603 5602 5600 5593 5596 5599 5598 5595 5592 5593 5593 5592 5591
5607 5610 5611 5612 5614 5615 5616 5610 5611 5609 5606 5604 5606 5609 5607 5600 5598 5594 5586 5580 5576 5578 5578 5579 5578 5574 5571 5564 5585 5582 5581 5578 5576 5575 5575 5574 5577 5578 5576 5573 5573 5574 5574 5572
5585 5587 5589 5591 5592 5594 5593 5591 5591 5590 5587 5583 5586 5586 5583 5580 5578 5575 5568 5563 5555 5554 5555 5559 5556 5557 5553 5565 5564 5561 5557 5555 5555 5558 5558 5557 5555 5553 5556 5556 5555 5555 5556 5555
5563 5564 5567 5569 5572 5570 5570 5569 5569 5568 5565 5560 5565 5565 5562 5560 5557 5554 5551 5543 5541 5537 5540 5536 5538 5541 5550 5547 5541 5538 5538 5537 5537 5537 5539 5535 5536 5534 5534 5533 5534 5536 5536 5537
5541 5544 5546 5548 5548 5550 5550 5548 5550 5547 5543 5547 5551 5548 5544 5542 5539 5535 5528 5525 5523 5521 5524 5520 5520 5530 5529 5526 5521 5520 5521 5520 5519 5518 5516 5516 5519 5519 5517 5516 5514 5513 5515 5517
5520 5524 5526 5529 5529 5529 5529 5532 5530 5528 5526 5532 5531 5527 5525 5522 5521 5517 5513 5511 5508 5508 5509 5505 5506 5516 5511 5506 5505 5505 5504 5504 5504 5504 5503 5502 5502 5502 5502 5501 5500 5498 5500 5501
5501 5504 5508 5511 5512 5510 5511 5513 5515 5515 5509 5511 5511 5510 5508 5505 5504 5500 5497 5494 5495 5492 5492 5493 5498 5496 5493 5491 5491 5491 5490 5488 5488 5488 5488 5487 5487 5487 5487 5487 5485 5484 5484 5484
5484 5485 5491 5495 5495 5495 5497 5497 5497 5496 5493 5492 5490 5489 5490 5487 5485 5484 5481 5478 5478 5476 5477 5480 5481 5481 5480 5479 5477 5475 5473 5473 5472 5472 5472 5473 5474 5474 5473 5471 5469 5469 5468 5469
5464 5467 5475 5479 5479 5479 5478 5481 5482 5478 5477 5473 5471 5471 5471 5470 5467 5466 5464 5462 5463 5464 5467 5465 5463 5463 5462 5462 5461 5460 5460 5461 5460 5460 5459 5461 5461 5461 5461 5460 5459 5459 5459 5458
5444 5451 5460 5461 5462 5463 5464 5465 5465 5460 5457 5455 5453 5452 5449 5450 5447 5448 5448 5447 5448 5451 5453 5451 5451 5451 5449 5449 5450 5450 5451 5451 5451 5449 5449 5448 5448 5449 5449 5450 5450 5449 5448 5447
5426 5440 5443 5442 5445 5447 5447 5444 5444 5440 5438 5437 5435 5432 5430 5427 5425 5429 5432 5433 5436 5437 5436 5434 5432 5431 5432 5433 5435 5438 5438 5437 5435 5435 5436 5436 5436 5437 5438 5439 5438 5437 5437 5436